Retour au catalogue

STARLINK-35112

ActifCommunicationsSSO
NORAD 65520·PAYLOAD·🇺🇸 United States

Lancé Sep 6, 2025 depuis Cape Canaveral Space Force Station

Loading…

Prochains Passages (prochaines 24 heures)

TLE

FraisSource: CelesTrak SupGP

Époque: Sep 14, 2026, 21:25 UTC

1 65520C 25200A   26257.89284722 -.00028731  00000+0 -89188-3 0  2577
2 65520  97.2857 324.4272 0000814  86.9302  30.4522 15.33454232    12

Suivez STARLINK-35112 en temps réel avec AllMySat

Download on the App Store